Location: Unspecified
(0.0000°N, 0.0000°E)
Time: 15:05:36
(UTC+00:00)

Explorer 11/Cluster Stage 4 - Pass Details

Date: 01 March 2024
Orbit: 465 x 1219 km, 28.8° (Epoch: 24 April)

Event Time Altitude Azimuth Distance (km) Brightness Sun altitude
Rises 19:43:24 0° 258° (WSW) 3,207 11.2 -22.6°
Reaches altitude 10° 19:45:50 10° 267° (W) 2,399 10.2 -23.2°
Maximum altitude 19:51:11 37° 333° (NNW) 1,412 7.9 -24.5°
Enters shadow 19:53:59 26° 18° (NNE) 1,834 8.2 -25.2°
